Location: Ottawa
(45.4170°N, 75.7000°W)
Time: 01:45:34
(UTC-04:00)

ISS - Visible Passes

Search period start: 28 September 2022 00:00
Search period end: 08 October 2022 00:00
Orbit: 414 x 417 km, 51.6° (Epoch: 28 September)

Date Brightness Start Highest point End Pass type
(mag) Time Alt. Az. Time Alt. Az. Time Alt. Az.
28 Sep -2.8 19:57:24 10° NW 20:00:35 37° NNE 20:02:10 23° ENE visible
28 Sep -0.8 21:34:07 10° WNW 21:35:03 17° WNW 21:35:03 17° WNW visible
29 Sep -3.4 20:45:21 10° WNW 20:48:14 62° WNW 20:48:14 62° WNW visible
30 Sep -3.7 19:56:37 10° WNW 19:59:58 65° NNE 20:01:27 30° E visible
30 Sep -0.6 21:33:47 10° W 21:34:20 13° W 21:34:20 13° W visible
01 Oct -3.2 19:07:52 10° NW 19:11:08 46° NNE 19:14:23 10° E visible
01 Oct -2.5 20:44:42 10° WNW 20:47:36 34° SW 20:47:36 34° SW visible
02 Oct -3.3 19:55:47 10° WNW 19:59:05 57° SW 20:00:55 23° SE visible
03 Oct -3.8 19:06:56 10° WNW 19:10:19 89° NE 19:13:39 10° ESE visible
03 Oct -1.2 20:44:39 10° W 20:46:36 15° SW 20:47:14 14° SSW visible
04 Oct -1.7 19:55:12 10° W 19:57:57 24° SW 20:00:42 10° SSE visible
05 Oct -2.4 19:06:05 10° WNW 19:09:14 38° SW 19:12:22 10° SSE visible
07 Oct -0.9 19:05:43 10° W 19:07:53 16° SW 19:10:03 10° S visible
